GW1618 Weather Reports


time (UTC)temp
C
wind
direction
speed
KPH
gust
KPH
rain 1hr
cm
rain 24hr
cm
rain mn
cm
humidity
%
barometer
mb
20260902211031 15 159 9.7 17.7 0.13 0.20 0.18 82 1003.4
20260902210531 15 174 8.0 14.5 0.15 0.20 0.18 82 1003.4
20260902210129 15 205 9.7 17.7 0.15 0.20 0.18 82 1003.4
20260902205031 15 220 12.9 29.0 0.10 0.15 0.13 80 1003.5
20260902204633 15 200 14.5 29.0 0.13 0.15 0.13 80 1003.5
20260902203530 15 157 11.3 25.7 0.10 0.13 0.10 80 1003.5
20260902203337 15 186 12.9 27.4 0.08 0.10 0.08 80 1003.5
20260902202518 15 184 12.9 27.4 0.08 0.10 0.08 79 1003.7
20260902202007 15 177 11.3 27.4 0.05 0.08 0.05 79 1003.7
20260902201503 15 168 14.5 30.6 0.05 0.08 0.05 79 1003.7
20260902200958 15 173 17.7 30.6 0.05 0.08 0.05 77 1004.0
20260902200444 16 177 17.7 30.6 0.03 0.05 0.03 76 1004.0
20260902195946 16 190 19.3 45.1 0.03 0.05 0.03 75 1004.0
20260902195436 16 177 20.9 45.1 0.03 0.05 0.03 73 1003.6
20260902195154 16 171 17.7 33.8 0.00 0.03 0.00 72 1003.6
20260902194437 16 180 14.5 32.2 0.00 0.03 0.00 71 1003.6
20260902193935 17 154 14.5 30.6 0.00 0.03 0.00 70 1003.9
20260902193439 17 163 17.7 35.4 0.00 0.03 0.00 69 1003.9
20260902192935 17 236 17.7 35.4 0.00 0.03 0.00 68 1003.9
20260902192433 17 206 17.7 35.4 0.00 0.03 0.00 68 1004.0
20260902192033 17 169 17.7 35.4 0.00 0.03 0.00 67 1004.0
20260902191252 17 182 19.3 43.5 0.00 0.03 0.00 67 1004.0
20260902190433 17 179 20.9 46.7 0.00 0.03 0.00 65 1004.0
20260902185931 17 220 19.3 46.7 0.00 0.03 0.00 64 1004.0
20260902185431 18 210 16.1 35.4 0.00 0.03 0.00 64 1004.0
20260902184932 18 164 12.9 25.7 0.00 0.03 0.00 64 1004.0
20260902184439 18 167 12.9 29.0 0.00 0.03 0.00 64 1004.0
20260902183931 18 218 9.7 29.0 0.00 0.03 0.00 64 1004.2
20260902183437 18 199 8.0 20.9 0.00 0.03 0.00 64 1004.2
20260902182930 17 154 12.9 27.4 0.00 0.03 0.00 66 1004.2
20260902182832 17 183 14.5 27.4 0.00 0.03 0.00 65 1004.4
20260902181416 17 186 19.3 35.4 0.00 0.03 0.00 64 1004.4
20260902180915 17 223 16.1 35.4 0.00 0.03 0.00 63 1004.4
20260902180409 18 221 14.5 25.7 0.00 0.03 0.00 61 1004.4
20260902180216 18 191 12.9 29.0 0.00 0.03 0.00 60 1004.4
20260902175741 18 198 11.3 29.0 0.00 0.03 0.00 63 1004.4
20260902174915 17 189 9.7 20.9 0.00 0.03 0.00 64 1004.4
20260902174409 17 177 8.0 17.7 0.00 0.03 0.00 66 1004.4
20260902173906 17 174 6.4 17.7 0.00 0.03 0.00 67 1004.4
20260902173405 17 236 6.4 11.3 0.00 0.03 0.00 67 1004.4
20260902172906 17 200 8.0 17.7 0.00 0.03 0.00 67 1004.4
20260902172403 17 202 6.4 17.7 0.00 0.03 0.00 69 1004.5
20260902172215 17 168 4.8 8.0 0.00 0.03 0.00 68 1004.5
20260902171407 16 193 4.8 8.0 0.00 0.03 0.00 71 1004.5
20260902170904 16 231 4.8 8.0 0.00 0.03 0.00 72 1004.7
20260902170404 16 229 4.8 8.0 0.00 0.03 0.00 72 1004.7
20260902165903 16 220 3.2 8.0 0.00 0.03 0.00 74 1004.7
20260902165405 16 214 4.8 9.7 0.00 0.03 0.00 76 1004.7
20260902165220 16 214 4.8 9.7 0.00 0.03 0.00 75 1004.7
20260902164406 16 199 3.2 6.4 0.00 0.03 0.00 76 1004.7
20260902163910 16 235 3.2 6.4 0.00 0.03 0.00 75 1004.9
20260902163406 16 188 3.2 6.4 0.00 0.03 0.00 76 1004.9
20260902162856 15 177 3.2 6.4 0.00 0.03 0.00 76 1004.9
20260902162350 15 216 3.2 6.4 0.00 0.03 0.00 76 1005.0
20260902161854 15 229 3.2 6.4 0.00 0.03 0.00 76 1005.0
20260902161652 15 177 4.8 8.0 0.00 0.03 0.00 76 1005.0
20260902160845 15 235 4.8 8.0 0.00 0.03 0.00 76 1005.1
20260902160347 15 141 4.8 8.0 0.00 0.03 0.00 76 1005.1
20260902155846 15 216 3.2 8.0 0.00 0.03 0.00 76 1005.1
20260902155347 15 209 4.8 11.3 0.00 0.03 0.00 76 1005.5
20260902154854 15 192 6.4 11.3 0.00 0.03 0.00 76 1005.5
20260902154347 15 218 6.4 9.7 0.00 0.03 0.00 75 1005.5
20260902153848 15 190 6.4 14.5 0.00 0.03 0.00 76 1005.6
20260902153341 15 209 4.8 14.5 0.00 0.03 0.00 76 1005.6
20260902153224 15 194 3.2 8.0 0.00 0.03 0.00 77 1005.6
20260902152424 15 169 4.8 8.0 0.00 0.03 0.00 76 1005.7
20260902151640 15 212 3.2 8.0 0.00 0.03 0.00 77 1005.7
20260902150933 15 209 3.2 8.0 0.00 0.03 0.00 78 1006.1
20260902145848 15 202 4.8 8.0 0.00 0.03 0.00 79 1006.1
20260902145345 15 233 4.8 8.0 0.00 0.03 0.00 79 1006.2
20260902144841 15 219 4.8 9.7 0.00 0.03 0.00 79 1006.2
20260902144338 15 225 4.8 11.3 0.00 0.03 0.00 80 1006.2
20260902143831 15 197 3.2 11.3 0.00 0.03 0.00 80 1006.1
20260902143333 15 179 3.2 6.4 0.00 0.03 0.00 81 1006.1
20260902142830 15 202 1.6 4.8 0.00 0.03 0.00 82 1006.1
20260902142335 15 144 1.6 3.2 0.00 0.03 0.00 82 1006.4
20260902141828 15 182 1.6 4.8 0.00 0.03 0.00 82 1006.4
20260902141331 15 225 1.6 6.4 0.00 0.03 0.00 82 1006.4
20260902140835 14 229 3.2 8.0 0.00 0.03 0.00 82 1006.6
20260902140320 14 188 4.8 8.0 0.00 0.03 0.00 83 1006.6
20260902140120 14 244 3.2 6.4 0.00 0.03 0.00 83 1006.6
20260902135638 14 254 3.2 6.4 0.00 0.03 0.00 83 1006.6
20260902134815 15 226 3.2 8.0 0.00 0.03 0.00 83 1006.6
20260902134309 15 197 3.2 8.0 0.00 0.03 0.00 83 1006.6
20260902134057 15 237 4.8 11.3 0.00 0.03 0.00 83 1006.7
20260902133305 15 263 4.8 11.3 0.00 0.03 0.00 83 1006.7
20260902132807 15 217 4.8 9.7 0.00 0.03 0.00 82 1006.7
20260902132306 15 221 4.8 9.7 0.00 0.03 0.00 82 1006.7
20260902131804 15 219 4.8 9.7 0.00 0.03 0.00 83 1006.7
20260902131304 15 206 6.4 14.5 0.00 0.03 0.00 82 1006.7
20260902130803 15 175 4.8 14.5 0.00 0.03 0.00 82 1007.0
20260902130304 15 174 4.8 8.0 0.00 0.03 0.00 82 1007.0
20260902130103 15 175 3.2 6.4 0.00 0.03 0.00 83 1007.0
20260902125256 15 206 3.2 6.4 0.00 0.03 0.00 83 1007.1
20260902124749 15 242 3.2 8.0 0.00 0.03 0.00 83 1007.1
20260902124249 15 209 3.2 8.0 0.00 0.03 0.00 83 1007.1
20260902123739 15 228 3.2 8.0 0.00 0.03 0.00 84 1007.2
20260902123547 15 227 3.2 8.0 0.00 0.03 0.00 84 1007.2
20260902122738 14 195 3.2 6.4 0.00 0.03 0.00 84 1007.2
20260902122238 14 204 3.2 8.0 0.00 0.03 0.00 84 1007.4
20260902121744 14 211 4.8 8.0 0.00 0.03 0.00 84 1007.4
20260902121238 14 222 4.8 8.0 0.00 0.03 0.00 84 1007.4
20260902120738 14 207 4.8 8.0 0.00 0.03 0.00 84 1007.5
20260902120241 14 221 3.2 8.0 0.00 0.03 0.00 84 1007.5
20260902115745 14 214 4.8 8.0 0.00 0.03 0.00 84 1007.5
20260902115238 14 226 4.8 8.0 0.00 0.03 0.00 84 1007.6
20260902114739 14 233 3.2 6.4 0.00 0.03 0.00 84 1007.6
20260902114234 15 233 4.8 8.0 0.00 0.03 0.00 84 1007.6
20260902114051 15 227 4.8 9.7 0.00 0.03 0.00 85 1007.6
20260902113232 15 195 6.4 11.3 0.00 0.03 0.00 84 1007.6
20260902112732 15 208 6.4 12.9 0.00 0.03 0.00 84 1007.6
20260902112538 14 204 6.4 17.7 0.00 0.03 0.00 84 1007.7
20260902111736 14 175 4.8 17.7 0.00 0.03 0.00 85 1007.7
20260902111233 14 178 4.8 11.3 0.00 0.03 0.00 85 1007.7
20260902110827 14 210 4.8 12.9 0.00 0.03 0.00 85 1007.7
20260902105713 14 192 4.8 9.7 0.00 0.03 0.00 85 1007.7
20260902105458 14 229 4.8 9.7 0.00 0.03 0.00 85 1007.8
20260902104706 14 267 6.4 16.1 0.00 0.03 0.00 85 1007.8
20260902104510 14 244 6.4 16.1 0.00 0.03 0.00 85 1007.8
20260902103655 14 227 4.8 11.3 0.00 0.03 0.00 85 1007.7
20260902103148 15 213 4.8 11.3 0.00 0.03 0.00 85 1007.7
20260902102645 15 214 4.8 11.3 0.00 0.03 0.00 85 1007.7
20260902102148 15 216 6.4 11.3 0.00 0.03 0.00 84 1007.7
20260902101934 15 209 6.4 11.3 0.00 0.03 0.00 84 1007.7
20260902101137 14 179 4.8 9.7 0.00 0.03 0.00 85 1007.8
20260902100633 14 173 4.8 9.7 0.00 0.03 0.00 85 1007.8
20260902100136 15 142 4.8 9.7 0.00 0.03 0.00 85 1007.8
20260902095634 15 163 3.2 8.0 0.00 0.03 0.00 86 1008.1
20260902095139 15 159 1.6 6.4 0.00 0.03 0.00 86 1008.1
20260902094632 15 179 3.2 6.4 0.00 0.03 0.00 86 1008.1
20260902094423 15 173 1.6 4.8 0.00 0.03 0.00 86 1008.2
20260902093634 15 210 3.2 8.0 0.00 0.03 0.00 86 1008.2
20260902093133 15 195 3.2 9.7 0.00 0.03 0.00 86 1008.2
20260902092629 15 208 3.2 9.7 0.00 0.03 0.00 86 1008.2
20260902092136 15 195 3.2 8.0 0.00 0.03 0.00 86 1008.2
20260902091635 15 186 3.2 8.0 0.00 0.03 0.00 86 1008.2
20260902091132 15 205 4.8 8.0 0.00 0.03 0.00 86 1008.4
20260902090622 15 204 4.8 8.0 0.00 0.03 0.00 86 1008.4
20260902090109 15 254 4.8 8.0 0.00 0.03 0.00 86 1008.4
20260902085614 15 261 3.2 8.0 0.00 0.03 0.00 86 1008.7
20260902085110 15 211 3.2 9.7 0.00 0.03 0.00 86 1008.7
20260902084934 15 232 4.8 9.7 0.00 0.03 0.00 85 1008.7
20260902084431 15 254 4.8 9.7 0.00 0.03 0.00 85 1008.7
20260902083605 15 269 4.8 9.7 0.00 0.03 0.00 85 1008.7
20260902083103 15 219 4.8 11.3 0.00 0.03 0.00 85 1008.7
20260902082601 15 221 4.8 11.3 0.00 0.03 0.00 85 1009.0
20260902082438 15 225 1.6 6.4 0.00 0.03 0.00 85 1009.0
20260902081935 15 259 1.6 6.4 0.00 0.03 0.00 85 1009.0
20260902081431 15 164 1.6 4.8 0.00 0.03 0.00 85 1009.2
20260902080611 15 169 4.8 9.7 0.00 0.03 0.00 85 1009.2
20260902080045 15 192 4.8 9.7 0.00 0.03 0.00 85 1009.2
20260902075533 15 153 4.8 8.0 0.00 0.03 0.00 85 1009.2
20260902075039 15 204 4.8 8.0 0.00 0.03 0.00 85 1009.2
20260902074539 15 174 4.8 8.0 0.00 0.03 0.00 85 1009.2
20260902074041 15 187 4.8 9.7 0.00 0.03 0.00 85 1009.2
20260902073537 15 185 3.2 9.7 0.00 0.03 0.00 85 1009.2
20260902073034 15 201 3.2 6.4 0.00 0.03 0.00 85 1009.2
20260902072532 15 179 3.2 8.0 0.00 0.03 0.00 85 1009.2
20260902072032 15 246 3.2 8.0 0.00 0.03 0.00 85 1009.2
20260902071531 15 196 3.2 8.0 0.00 0.03 0.00 85 1009.2
20260902071029 15 221 3.2 6.4 0.00 0.03 0.00 85 1009.2
20260902070838 15 189 3.2 6.4 0.00 0.03 0.00 85 1009.2
20260902070029 15 206 3.2 8.0 0.00 0.03 0.00 85 1009.2
20260902065855 15 217 4.8 9.7 0.00 0.03 0.03 84 1009.1
20260902065031 15 175 4.8 9.7 0.00 0.03 0.03 84 1009.1
20260902064528 15 198 4.8 9.7 0.00 0.03 0.03 84 1009.1
20260902064032 15 188 4.8 8.0 0.00 0.03 0.03 84 1009.0
20260902063531 15 192 4.8 9.7 0.00 0.03 0.03 84 1009.0
20260902063035 15 163 4.8 9.7 0.00 0.03 0.03 83 1009.0
20260902062522 15 187 4.8 8.0 0.00 0.03 0.03 82 1009.1
20260902062010 16 163 3.2 6.4 0.00 0.03 0.03 81 1009.1
20260902061505 16 196 1.6 6.4 0.00 0.03 0.03 79 1009.1
20260902061001 16 211 1.6 4.8 0.00 0.03 0.03 78 1009.2
20260902060812 16 241 1.6 6.4 0.00 0.03 0.03 78 1009.2
20260902060006 16 181 3.2 6.4 0.00 0.03 0.03 77 1009.2
20260902055503 16 184 3.2 8.0 0.00 0.03 0.03 77 1009.3
20260902055003 16 176 4.8 9.7 0.00 0.03 0.03 77 1009.3
20260902054504 16 139 4.8 9.7 0.00 0.03 0.03 76 1009.3
20260902054002 16 164 6.4 11.3 0.00 0.03 0.03 76 1009.6
20260902053505 16 169 4.8 11.3 0.00 0.03 0.03 76 1009.6
20260902053005 16 182 4.8 9.7 0.00 0.03 0.03 76 1009.6
20260902052507 16 241 4.8 9.7 0.00 0.03 0.03 76 1009.6
20260902052007 16 205 4.8 9.7 0.00 0.03 0.03 76 1009.6
20260902051813 16 253 4.8 8.0 0.00 0.03 0.03 76 1009.6
20260902051004 16 196 6.4 11.3 0.00 0.03 0.03 75 1009.7
20260902050501 16 173 8.0 12.9 0.00 0.03 0.03 75 1009.7
20260902050228 16 215 6.4 14.5 0.00 0.03 0.03 74 1009.7
20260902045501 16 219 6.4 16.1 0.00 0.03 0.03 74 1009.6
20260902045007 16 220 6.4 16.1 0.00 0.03 0.03 74 1009.6
20260902044502 16 188 4.8 11.3 0.00 0.03 0.03 74 1009.6
20260902044001 16 206 3.2 11.3 0.00 0.03 0.03 74 1009.6
20260902043503 16 244 3.2 9.7 0.00 0.03 0.03 74 1009.6
20260902043001 16 250 3.2 6.4 0.00 0.03 0.03 74 1009.6
20260902042501 16 275 3.2 6.4 0.00 0.03 0.03 74 1009.7
20260902042003 16 238 3.2 6.4 0.00 0.03 0.03 74 1009.7
20260902041507 16 242 3.2 6.4 0.00 0.03 0.03 74 1009.7
20260902041006 16 252 1.6 4.8 0.00 0.03 0.03 74 1009.6
20260902040817 16 281 3.2 6.4 0.00 0.03 0.03 74 1009.6
20260902040004 16 290 3.2 6.4 0.00 0.03 0.03 74 1009.6
20260902035501 16 273 3.2 6.4 0.00 0.03 0.03 74 1009.5
20260902035003 16 281 3.2 6.4 0.00 0.03 0.03 73 1009.5
20260902034501 16 261 3.2 4.8 0.00 0.03 0.03 74 1009.5
20260902034006 16 261 3.2 6.4 0.00 0.03 0.03 74 1009.5
20260902033556 16 305 4.8 8.0 0.00 0.03 0.03 74 1009.5
20260902032820 17 308 3.2 8.0 0.00 0.03 0.03 74 1009.4
20260902031504 17 330 3.2 6.4 0.00 0.03 0.03 72 1009.4
20260902031005 17 291 4.8 9.7 0.00 0.03 0.03 72 1009.3
20260902030504 17 245 4.8 9.7 0.00 0.03 0.03 72 1009.3
20260902030009 17 238 4.8 9.7 0.00 0.03 0.03 72 1009.3
20260902025801 17 217 4.8 9.7 0.00 0.03 0.03 72 1009.3
20260902025000 17 185 4.8 8.0 0.00 0.03 0.03 71 1009.3
20260902024506 17 204 6.4 11.3 0.00 0.03 0.03 71 1009.3
20260902024005 17 240 6.4 11.3 0.00 0.03 0.03 70 1009.2
20260902023507 17 263 6.4 11.3 0.00 0.03 0.03 70 1009.2
20260902023001 17 272 6.4 14.5 0.00 0.03 0.03 70 1009.2
20260902022756 17 221 6.4 14.5 0.00 0.03 0.03 71 1009.4
20260902021947 17 186 6.4 11.3 0.00 0.03 0.03 72 1009.4
20260902021439 17 217 4.8 11.3 0.00 0.03 0.03 71 1009.4
20260902020936 17 243 4.8 11.3 0.00 0.03 0.03 72 1009.6
20260902020439 17 192 4.8 11.3 0.00 0.03 0.03 72 1009.6
20260902015936 17 189 4.8 9.7 0.00 0.03 0.03 72 1009.6
20260902015436 17 224 4.8 9.7 0.00 0.03 0.03 72 1009.5
20260902014937 17 228 4.8 11.3 0.00 0.03 0.03 72 1009.5
20260902014435 17 193 4.8 11.3 0.00 0.03 0.03 72 1009.5
20260902014253 17 178 6.4 11.3 0.00 0.03 0.03 72 1009.3
20260902013750 17 192 6.4 11.3 0.00 0.03 0.03 72 1009.3
20260902013249 17 171 4.8 9.7 0.00 0.03 0.03 71 1009.3
20260902012438 17 163 4.8 8.0 0.00 0.03 0.03 71 1009.3
20260902011934 17 201 4.8 9.7 0.00 0.03 0.03 70 1009.3
20260902011430 17 179 6.4 14.5 0.00 0.03 0.03 69 1009.3
20260902010947 18 178 6.4 14.5 0.00 0.03 0.03 69 1009.2
20260902005937 18 209 9.7 22.5 0.00 0.03 0.03 68 1009.2
20260902005434 18 235 12.9 30.6 0.00 0.03 0.03 68 1009.3
20260902004928 18 216 9.7 30.6 0.00 0.03 0.03 68 1009.3
20260902004423 18 207 8.0 16.1 0.00 0.03 0.03 68 1009.3
20260902003953 18 304 8.0 16.1 0.00 0.03 0.03 67 1009.1
20260902002855 18 173 8.0 17.7 0.00 0.03 0.03 68 1009.1
20260902002355 18 167 8.0 16.1 0.00 0.03 0.03 68 1009.2
20260902001856 18 180 8.0 16.1 0.00 0.03 0.03 69 1009.2
20260902001400 18 209 6.4 16.1 0.00 0.03 0.03 68 1009.2
20260902000855 18 208 6.4 17.7 0.00 0.03 0.03 68 1009.2
20260902000356 18 190 8.0 17.7 0.00 0.03 0.03 69 1009.2
20260901235849 18 178 8.0 16.1 0.00 0.03 0.03 69 1009.2
20260901235348 18 201 8.0 16.1 0.00 0.03 0.03 68 1009.3
20260901234849 18 202 8.0 19.3 0.00 0.03 0.03 68 1009.3
20260901234347 18 180 8.0 19.3 0.00 0.03 0.03 67 1009.3
20260901233846 18 240 9.7 22.5 0.00 0.03 0.03 66 1009.3
20260901233346 18 198 9.7 22.5 0.00 0.03 0.03 66 1009.3
20260901232845 18 229 9.7 19.3 0.00 0.03 0.03 65 1009.3
20260901232347 18 245 9.7 19.3 0.00 0.03 0.03 66 1009.2
20260901231844 18 237 9.7 19.3 0.00 0.03 0.03 65 1009.2
20260901231343 18 238 9.7 19.3 0.00 0.03 0.03 65 1009.2
20260901230843 18 227 8.0 17.7 0.00 0.03 0.03 68 1009.2
20260901230346 18 224 9.7 19.3 0.00 0.03 0.03 69 1009.2
20260901225841 18 228 12.9 20.9 0.00 0.03 0.03 72 1009.2
20260901225337 18 206 11.3 20.9 0.00 0.03 0.03 71 1009.2
20260901224822 18 233 11.3 20.9 0.00 0.03 0.03 70 1009.2
20260901224640 18 181 11.3 20.9 0.00 0.03 0.03 72 1009.2
20260901223810 18 186 8.0 19.3 0.00 0.03 0.03 72 1009.3
20260901223307 17 194 4.8 19.3 0.03 0.03 0.03 75 1009.3
20260901222750 17 236 4.8 11.3 0.03 0.03 0.03 79 1009.3
20260901222249 18 271 3.2 11.3 0.03 0.03 0.03 76 1009.3
20260901221739 17 157 1.6 6.4 0.03 0.03 0.03 78 1009.3
20260901221232 17 238 3.2 6.4 0.03 0.03 0.03 78 1009.3
20260901221047 17 233 1.6 6.4 0.03 0.03 0.03 78 1009.5
20260901220531 17 202 3.2 6.4 0.03 0.03 0.03 79 1009.5
20260901215707 17 254 4.8 8.0 0.03 0.03 0.03 79 1009.5
20260901215215 17 223 3.2 8.0 0.03 0.03 0.03 79 1009.7
20260901214707 17 185 4.8 9.7 0.03 0.03 0.03 80 1009.7
20260901214250 17 224 3.2 9.7 0.03 0.03 0.03 79 1009.7
20260901213202 17 348 6.4 11.3 0.00 0.00 0.00 78 1009.5
20260901212707 16 14 9.7 16.1 0.00 0.00 0.00 78 1009.5
20260901212206 17 359 9.7 16.1 0.00 0.00 0.00 78 1009.6
20260901212025 17 4 9.7 16.1 0.00 0.00 0.00 77 1009.6
20260901211517 17 15 6.4 11.3 0.00 0.00 0.00 74 1009.6